Tiempo cada hora Dabrowno

Hoy, 4 Agosto, Miércoles

Tiempo Temperatura Precipitaciones Viento Presión Humedad
00:00 +14°C° 0 mm 0 mps 745 mmHg 71%
01:00 +14°C° 0 mm 0 mps 745 mmHg 69%
02:00 +14°C° 0 mm 0 mps 745 mmHg 70%
03:00 +14°C° 0 mm 0 mps 745 mmHg 71%
04:00 +14°C° 0 mm 0 mps 745 mmHg 72%
05:00 +15°C° 0 mm 1 mps 745 mmHg 71%
06:00 +16°C° 0 mm 1 mps 745 mmHg 70%
07:00 +18°C° 0 mm 1 mps 745 mmHg 69%
08:00 +18°C° 0.1 mm 1 mps 745 mmHg 72%
09:00 +18°C° 0.1 mm 1 mps 745 mmHg 75%
10:00 +18°C° 0.1 mm 1 mps 746 mmHg 78%
11:00 +18°C° 0.1 mm 1 mps 746 mmHg 80%
12:00 +18°C° 0.1 mm 1 mps 745 mmHg 82%
13:00 +18°C° 0.1 mm 1 mps 745 mmHg 84%
14:00 +18°C° 0.1 mm 1 mps 745 mmHg 82%
15:00 +18°C° 0.1 mm 1 mps 745 mmHg 80%
16:00 +19°C° 0.1 mm 1 mps 745 mmHg 78%
17:00 +18°C° 0.1 mm 1 mps 745 mmHg 80%
18:00 +18°C° 0.1 mm 1 mps 745 mmHg 81%
19:00 +16°C° 0.1 mm 1 mps 745 mmHg 83%
20:00 +16°C° 0 mm 1 mps 745 mmHg 84%
21:00 +15°C° 0 mm 1 mps 745 mmHg 86%
22:00 +15°C° 0 mm 1 mps 745 mmHg 87%
23:00 +14°C° 0 mm 1 mps 745 mmHg 87%

Mañana, 5 Agosto, Jueves

Tiempo Temperatura Precipitaciones Viento Presión Humedad
00:00 +14°C° 0 mm 1 mps 745 mmHg 88%
01:00 +14°C° 0 mm 1 mps 745 mmHg 88%
02:00 +13°C° 0 mm 1 mps 745 mmHg 89%
03:00 +13°C° 0 mm 1 mps 745 mmHg 89%
04:00 +13°C° 0 mm 1 mps 745 mmHg 90%
05:00 +14°C° 0 mm 2 mps 745 mmHg 86%
06:00 +15°C° 0 mm 2 mps 745 mmHg 81%
07:00 +17°C° 0 mm 2 mps 745 mmHg 77%
08:00 +18°C° 0 mm 2 mps 745 mmHg 70%
09:00 +20°C° 0 mm 2 mps 744 mmHg 62%
10:00 +21°C° 0 mm 3 mps 744 mmHg 55%
11:00 +22°C° 0 mm 3 mps 744 mmHg 51%
12:00 +24°C° 0 mm 3 mps 744 mmHg 48%
13:00 +25°C° 0 mm 3 mps 743 mmHg 45%
14:00 +24°C° 0 mm 3 mps 743 mmHg 49%
15:00 +22°C° 0 mm 3 mps 743 mmHg 53%
16:00 +21°C° 0 mm 3 mps 743 mmHg 57%
17:00 +21°C° 0 mm 3 mps 743 mmHg 60%
18:00 +20°C° 0 mm 3 mps 742 mmHg 63%
19:00 +19°C° 0 mm 3 mps 742 mmHg 65%
20:00 +18°C° 0 mm 3 mps 742 mmHg 70%
21:00 +17°C° 0 mm 3 mps 742 mmHg 75%
22:00 +16°C° 0 mm 3 mps 742 mmHg 80%
23:00 +16°C° 0 mm 3 mps 741 mmHg 83%

Pasado mañana, 6 Agosto, Viernes

Tiempo Temperatura Precipitaciones Viento Presión Humedad
00:00 +16°C° 0 mm 3 mps 741 mmHg 85%
01:00 +14°C° 0 mm 3 mps 741 mmHg 87%
02:00 +14°C° 0 mm 4 mps 741 mmHg 86%
03:00 +14°C° 0 mm 4 mps 741 mmHg 84%
04:00 +14°C° 0 mm 4 mps 740 mmHg 83%
05:00 +14°C° 0 mm 4 mps 740 mmHg 80%
06:00 +14°C° 0 mm 4 mps 740 mmHg 78%
07:00 +15°C° 0 mm 4 mps 740 mmHg 75%
08:00 +15°C° 0 mm 4 mps 740 mmHg 73%
09:00 +17°C° 0 mm 4 mps 740 mmHg 71%
10:00 +17°C° 0 mm 4 mps 741 mmHg 69%
11:00 +17°C° 0 mm 4 mps 741 mmHg 71%
12:00 +16°C° 0 mm 3 mps 741 mmHg 73%
13:00 +16°C° 0 mm 3 mps 741 mmHg 75%
14:00 +16°C° 0.1 mm 2 mps 741 mmHg 75%
15:00 +16°C° 0.1 mm 1 mps 741 mmHg 76%
16:00 +16°C° 0.1 mm 1 mps 741 mmHg 76%
17:00 +16°C° 0 mm 1 mps 741 mmHg 78%
18:00 +15°C° 0 mm 1 mps 741 mmHg 79%
19:00 +15°C° 0 mm 1 mps 741 mmHg 81%
20:00 +14°C° 0 mm 2 mps 741 mmHg 82%
21:00 +13°C° 0 mm 2 mps 741 mmHg 84%
22:00 +13°C° 0 mm 2 mps 742 mmHg 86%
23:00 +12°C° 0 mm 2 mps 741 mmHg 88%

7 Agosto, Sábado

Tiempo Temperatura Precipitaciones Viento Presión Humedad
00:00 +12°C° 0 mm 2 mps 741 mmHg 89%
01:00 +12°C° 0 mm 2 mps 741 mmHg 91%
02:00 +10°C° 0 mm 2 mps 741 mmHg 92%
03:00 +10°C° 0 mm 2 mps 742 mmHg 92%
04:00 +10°C° 0 mm 2 mps 742 mmHg 93%
05:00 +13°C° 0 mm 2 mps 742 mmHg 87%
06:00 +15°C° 0 mm 2 mps 742 mmHg 81%
07:00 +17°C° 0 mm 2 mps 742 mmHg 75%
08:00 +19°C° 0 mm 2 mps 742 mmHg 68%
09:00 +20°C° 0 mm 2 mps 742 mmHg 60%
10:00 +23°C° 0 mm 2 mps 742 mmHg 53%
11:00 +24°C° 0 mm 2 mps 742 mmHg 50%
12:00 +26°C° 0 mm 2 mps 742 mmHg 46%
13:00 +27°C° 0 mm 2 mps 742 mmHg 43%
14:00 +26°C° 0 mm 2 mps 742 mmHg 48%
15:00 +25°C° 0 mm 2 mps 742 mmHg 53%
16:00 +24°C° 0 mm 2 mps 742 mmHg 58%
17:00 +23°C° 0 mm 2 mps 742 mmHg 61%
18:00 +23°C° 0 mm 2 mps 742 mmHg 64%
19:00 +21°C° 0 mm 2 mps 742 mmHg 67%
20:00 +20°C° 0 mm 2 mps 742 mmHg 68%
21:00 +20°C° 0 mm 3 mps 742 mmHg 70%
22:00 +19°C° 0 mm 3 mps 743 mmHg 71%
23:00 +19°C° 0 mm 3 mps 742 mmHg 74%

8 Agosto, Domingo

Tiempo Temperatura Precipitaciones Viento Presión Humedad
00:00 +18°C° 0 mm 3 mps 742 mmHg 77%
01:00 +17°C° 0 mm 3 mps 742 mmHg 79%
02:00 +17°C° 0 mm 3 mps 742 mmHg 81%
03:00 +17°C° 0 mm 3 mps 742 mmHg 83%
04:00 +17°C° 0 mm 4 mps 742 mmHg 85%
05:00 +17°C° 0 mm 5 mps 742 mmHg 77%
06:00 +19°C° 0 mm 5 mps 742 mmHg 70%
07:00 +20°C° 0 mm 6 mps 741 mmHg 62%
08:00 +21°C° 0 mm 7 mps 741 mmHg 59%
09:00 +23°C° 0 mm 7 mps 741 mmHg 56%
10:00 +24°C° 0 mm 7 mps 741 mmHg 53%
11:00 +23°C° 0.1 mm 6 mps 742 mmHg 61%
12:00 +21°C° 0.1 mm 6 mps 742 mmHg 70%
13:00 +20°C° 0.1 mm 5 mps 743 mmHg 79%
14:00 +21°C° 0 mm 5 mps 743 mmHg 70%
15:00 +22°C° 0 mm 5 mps 744 mmHg 62%
16:00 +23°C° 0 mm 5 mps 744 mmHg 54%
17:00 +22°C° 0 mm 4 mps 745 mmHg 59%
18:00 +21°C° 0 mm 3 mps 745 mmHg 63%
19:00 +20°C° 0 mm 2 mps 746 mmHg 68%
20:00 +19°C° 0 mm 2 mps 746 mmHg 70%
21:00 +18°C° 0 mm 2 mps 746 mmHg 71%
22:00 +17°C° 0 mm 2 mps 747 mmHg 73%
23:00 +17°C° 0 mm 2 mps 747 mmHg 74%

9 Agosto, Lunes

Tiempo Temperatura Precipitaciones Viento Presión Humedad
00:00 +16°C° 0 mm 2 mps 747 mmHg 75%
01:00 +15°C° 0 mm 2 mps 747 mmHg 76%
02:00 +15°C° 0 mm 2 mps 747 mmHg 78%
03:00 +15°C° 0 mm 2 mps 748 mmHg 80%
04:00 +15°C° 0 mm 2 mps 748 mmHg 82%
05:00 +16°C° 0 mm 2 mps 748 mmHg 75%
06:00 +18°C° 0 mm 3 mps 748 mmHg 69%
07:00 +19°C° 0 mm 3 mps 748 mmHg 63%
08:00 +21°C° 0 mm 3 mps 749 mmHg 57%
09:00 +22°C° 0 mm 3 mps 749 mmHg 51%
10:00 +25°C° 0 mm 3 mps 749 mmHg 44%
11:00 +26°C° 0 mm 4 mps 749 mmHg 41%
12:00 +26°C° 0 mm 4 mps 749 mmHg 38%
13:00 +27°C° 0 mm 4 mps 749 mmHg 35%
14:00 +27°C° 0 mm 4 mps 748 mmHg 35%
15:00 +27°C° 0 mm 4 mps 748 mmHg 35%
16:00 +27°C° 0 mm 4 mps 748 mmHg 35%
17:00 +25°C° 0 mm 3 mps 748 mmHg 40%
18:00 +24°C° 0 mm 2 mps 748 mmHg 46%
19:00 +21°C° 0 mm 2 mps 748 mmHg 51%
20:00 +20°C° 0 mm 2 mps 748 mmHg 52%
21:00 +20°C° 0 mm 1 mps 748 mmHg 53%
22:00 +20°C° 0 mm 1 mps 748 mmHg 54%
23:00 +19°C° 0 mm 2 mps 748 mmHg 55%
Mostrar más

Necesitamos Su Consentimiento

Meteoprog y nuestros Proveedores de Servicios pueden almacenar y acceder a sus datos personales como cookies, identificadores de dispositivo u otras tecnologías similares de su dispositivo y procesar dichos datos para personalizar contenido y anuncios, además de ofrecer funciones de redes sociales y analizar el tráfico.

  • Almacenar y/o acceder a información en su dispositivo

    Se puede almacenar o acceder a cookies, identificadores de dispositivo u otra información de su dispositivo para los fines anteriormente indicados.

  • Anuncios y contenido personalizados, medición de anuncios y contenido, percepciones del público, y desarrollo de productos

    Los anuncios y el contenido pueden personalizarse en base a su perfil. Se pueden añadir más datos para personalizar mejor los anuncios y contenidos. Se puede medir el rendimiento de los anuncios y contenidos. Se puede obtener la percepción sobre el público que ha visto los anuncios y contenidos. Dichos datos pueden usarse para desarrollar o mejorar la experiencia del usuario, sistemas y software.

Al hacer clic en ‘Estoy De Acuerdo’ usted permitirá el uso de las cookies, identificadores de dispositivo, balizas web u otras tecnologías similares indicadas. Su configuración puede cambiarse desde el navegador de su dispositivo.

Para ciertos fines, los intereses legítimos pueden ser considerados por encima del consentimiento. Puede leer más sobre ello en nuestra Política de Privacidad y Cookies.